| time (UTC) | temp F | wind direction | speed MPH | gust MPH | rain 1hr in | rain 24hr in | rain mn in | humidity % | barometer mb |
| 20260508054717 | 54 | 0.0 | 0.0 | 0.00 | 0.90 | 0.00 | 83 | 1014.7 | |
| 20260508053717 | 54 | 0.0 | 0.0 | 0.00 | 0.90 | 0.00 | 83 | 1014.7 | |
| 20260508052716 | 55 | 0.0 | 0.0 | 0.00 | 0.90 | 0.00 | 84 | 1014.7 | |
| 20260508051736 | 55 | 0.0 | 0.0 | 0.00 | 0.90 | 0.00 | 84 | 1014.6 | |
| 20260508050736 | 55 | 0.0 | 0.0 | 0.00 | 0.90 | 0.00 | 84 | 1014.5 | |
| 20260508045736 | 55 | 0.0 | 0.0 | 0.00 | 0.91 | 0.00 | 84 | 1014.5 | |
| 20260508044716 | 55 | 0.0 | 0.0 | 0.00 | 1.02 | 0.00 | 84 | 1014.4 | |
| 20260508043756 | 55 | 0.0 | 0.0 | 0.00 | 1.08 | 0.00 | 84 | 1014.4 | |
| 20260508042717 | 55 | 0.0 | 0.0 | 0.00 | 1.14 | 0.00 | 84 | 1014.4 | |
| 20260508041716 | 55 | 0.0 | 0.0 | 0.00 | 1.17 | 0.00 | 84 | 1014.5 | |
| 20260508040716 | 55 | 0.0 | 0.0 | 0.00 | 1.17 | 0.00 | 84 | 1014.5 | |
| 20260508035716 | 55 | 0.0 | 0.0 | 0.00 | 1.17 | 1.17 | 83 | 1014.3 | |
| 20260508034735 | 55 | 0.0 | 0.0 | 0.00 | 1.17 | 1.17 | 84 | 1014.4 | |
| 20260508033715 | 55 | 0.0 | 0.0 | 0.00 | 1.17 | 1.17 | 84 | 1014.1 | |
| 20260508032715 | 55 | 0.0 | 0.0 | 0.00 | 1.18 | 1.17 | 84 | 1013.9 | |
| 20260508031716 | 55 | 0.0 | 0.0 | 0.00 | 1.18 | 1.17 | 84 | 1013.8 | |
| 20260508030715 | 55 | 0.0 | 0.0 | 0.00 | 1.18 | 1.17 | 84 | 1013.7 | |
| 20260508025715 | 55 | 0.0 | 0.0 | 0.00 | 1.18 | 1.17 | 84 | 1013.7 | |
| 20260508024755 | 55 | 0.0 | 0.0 | 0.00 | 1.18 | 1.17 | 84 | 1013.5 | |
| 20260508023717 | 55 | 0.0 | 0.0 | 0.00 | 1.18 | 1.17 | 84 | 1013.5 | |
| 20260508022717 | 55 | 0.0 | 0.0 | 0.00 | 1.18 | 1.17 | 83 | 1013.3 | |
| 20260508021737 | 55 | 0.0 | 0.0 | 0.00 | 1.18 | 1.17 | 84 | 1013.4 | |
| 20260508020717 | 55 | 0.0 | 0.0 | 0.00 | 1.18 | 1.17 | 84 | 1013.1 | |
| 20260508015717 | 55 | 0.0 | 0.0 | 0.00 | 1.18 | 1.17 | 84 | 1012.9 | |
| 20260508014717 | 55 | 0.0 | 0.0 | 0.00 | 1.18 | 1.17 | 84 | 1013.2 | |
| 20260508013717 | 55 | 0.0 | 0.0 | 0.00 | 1.18 | 1.17 | 83 | 1013.1 | |
| 20260508012717 | 55 | 0.0 | 0.0 | 0.01 | 1.18 | 1.17 | 83 | 1012.7 | |
| 20260508011717 | 55 | 0.0 | 0.0 | 0.03 | 1.18 | 1.17 | 83 | 1012.5 | |
| 20260508010717 | 55 | 0.0 | 0.0 | 0.09 | 1.18 | 1.17 | 83 | 1012.1 | |
| 20260508005717 | 56 | 0.0 | 0.0 | 0.11 | 1.18 | 1.17 | 83 | 1011.9 | |
| 20260508004718 | 56 | 0.0 | 0.0 | 0.13 | 1.18 | 1.17 | 82 | 1012.4 | |
| 20260508003717 | 56 | 0.0 | 0.0 | 0.13 | 1.18 | 1.17 | 82 | 1012.1 | |
| 20260508002717 | 56 | 0.0 | 0.0 | 0.12 | 1.17 | 1.16 | 82 | 1012.4 | |
| 20260508001717 | 56 | 0.0 | 0.0 | 0.10 | 1.15 | 1.14 | 82 | 1012.1 | |
| 20260508000717 | 56 | 0.0 | 0.0 | 0.04 | 1.09 | 1.08 | 81 | 1012.1 | |
| 20260507235737 | 56 | 0.0 | 0.0 | 0.02 | 1.07 | 1.06 | 81 | 1011.7 | |
| 20260507234717 | 56 | 0.0 | 2.0 | 0.00 | 1.05 | 1.04 | 80 | 1010.8 | |
| 20260507233717 | 56 | 0.0 | 0.0 | 0.00 | 1.05 | 1.04 | 80 | 1010.8 | |
| 20260507232737 | 56 | 0.0 | 1.0 | 0.00 | 1.05 | 1.04 | 80 | 1011.1 | |
| 20260507231717 | 56 | 0.0 | 2.0 | 0.00 | 1.05 | 1.04 | 80 | 1011.0 | |
| 20260507230717 | 56 | 0.0 | 2.0 | 0.00 | 1.05 | 1.04 | 80 | 1011.1 | |
| 20260507225737 | 57 | 0.0 | 1.0 | 0.00 | 1.05 | 1.04 | 81 | 1010.8 | |
| 20260507224716 | 57 | 0.0 | 0.0 | 0.00 | 1.05 | 1.04 | 80 | 1011.0 | |
| 20260507223717 | 57 | 0.0 | 0.0 | 0.00 | 1.05 | 1.04 | 80 | 1010.6 | |
| 20260507222717 | 57 | 0.0 | 2.0 | 0.00 | 1.05 | 1.04 | 79 | 1010.6 | |
| 20260507221717 | 57 | 0.0 | 0.0 | 0.00 | 1.05 | 1.04 | 79 | 1010.6 | |
| 20260507220716 | 57 | 203 | 1.0 | 5.0 | 0.00 | 1.05 | 1.04 | 79 | 1010.5 |
| 20260507215737 | 57 | 0.0 | 0.0 | 0.00 | 1.05 | 1.04 | 79 | 1010.7 | |
| 20260507214716 | 56 | 158 | 1.0 | 5.0 | 0.00 | 1.05 | 1.04 | 79 | 1010.9 |
| 20260507213716 | 56 | 0.0 | 2.0 | 0.00 | 1.05 | 1.04 | 80 | 1010.7 | |
| 20260507212717 | 57 | 0.0 | 2.0 | 0.00 | 1.05 | 1.04 | 80 | 1010.5 | |
| 20260507211716 | 57 | 90 | 1.0 | 6.0 | 0.00 | 1.05 | 1.04 | 80 | 1010.5 |
| 20260507210717 | 58 | 0.0 | 1.0 | 0.00 | 1.05 | 1.04 | 80 | 1010.3 | |
| 20260507205716 | 58 | 0.0 | 1.0 | 0.00 | 1.05 | 1.04 | 80 | 1010.0 | |
| 20260507204716 | 59 | 0.0 | 0.0 | 0.00 | 1.05 | 1.04 | 81 | 1009.8 | |
| 20260507203716 | 59 | 23 | 1.0 | 3.0 | 0.00 | 1.05 | 1.04 | 81 | 1009.7 |
| 20260507202716 | 59 | 0.0 | 2.0 | 0.00 | 1.05 | 1.04 | 81 | 1009.6 | |
| 20260507201716 | 59 | 0.0 | 0.0 | 0.00 | 1.05 | 1.04 | 81 | 1009.7 | |
| 20260507200716 | 59 | 0.0 | 2.0 | 0.00 | 1.05 | 1.04 | 81 | 1009.6 | |
| 20260507195716 | 59 | 0.0 | 3.0 | 0.00 | 1.05 | 1.04 | 81 | 1009.9 | |
| 20260507194716 | 59 | 45 | 1.0 | 4.0 | 0.00 | 1.05 | 1.04 | 82 | 1009.8 |
| 20260507193716 | 59 | 23 | 2.0 | 6.0 | 0.00 | 1.05 | 1.04 | 81 | 1009.7 |
| 20260507192716 | 60 | 270 | 1.0 | 3.0 | 0.00 | 1.05 | 1.04 | 82 | 1009.6 |
| 20260507191716 | 60 | 0.0 | 1.0 | 0.00 | 1.07 | 1.04 | 82 | 1009.6 | |
| 20260507190716 | 60 | 0.0 | 1.0 | 0.00 | 1.10 | 1.04 | 81 | 1010.0 | |
| 20260507185716 | 61 | 90 | 1.0 | 5.0 | 0.01 | 1.12 | 1.04 | 81 | 1009.7 |
| 20260507184716 | 62 | 0.0 | 1.0 | 0.01 | 1.12 | 1.04 | 81 | 1009.0 | |
| 20260507183736 | 62 | 315 | 2.0 | 4.0 | 0.01 | 1.12 | 1.04 | 81 | 1009.3 |
| 20260507182716 | 63 | 315 | 1.0 | 5.0 | 0.01 | 1.12 | 1.04 | 80 | 1009.4 |
| 20260507181716 | 63 | 0.0 | 1.0 | 0.01 | 1.12 | 1.04 | 80 | 1009.1 | |
| 20260507180716 | 68 | 158 | 2.0 | 4.0 | 0.01 | 1.12 | 1.04 | 76 | 1008.7 |
| 20260507175716 | 71 | 315 | 1.0 | 4.0 | 0.00 | 1.11 | 1.03 | 80 | 1008.8 |
| 20260507174716 | 71 | 0.0 | 0.0 | 0.00 | 1.11 | 1.03 | 83 | 1008.9 | |
| 20260507173716 | 71 | 293 | 3.0 | 5.0 | 0.00 | 1.11 | 1.03 | 81 | 1009.3 |
| 20260507172716 | 70 | 0.0 | 0.0 | 0.00 | 1.11 | 1.03 | 83 | 1009.1 | |
| 20260507171716 | 71 | 0.0 | 0.0 | 0.00 | 1.11 | 1.03 | 82 | 1008.9 | |
| 20260507170716 | 71 | 0.0 | 0.0 | 0.00 | 1.11 | 1.03 | 84 | 1008.5 | |
| 20260507165716 | 71 | 0.0 | 1.0 | 0.01 | 1.11 | 1.03 | 82 | 1008.7 | |
| 20260507164716 | 71 | 0.0 | 0.0 | 0.01 | 1.11 | 1.03 | 86 | 1008.7 | |
| 20260507163736 | 70 | 0.0 | 0.0 | 0.01 | 1.11 | 1.03 | 84 | 1009.2 | |
| 20260507162756 | 70 | 0.0 | 0.0 | 0.01 | 1.11 | 1.03 | 86 | 1009.7 | |
| 20260507161716 | 69 | 0.0 | 0.0 | 0.01 | 1.11 | 1.03 | 85 | 1010.0 | |
| 20260507160715 | 69 | 0.0 | 0.0 | 0.01 | 1.11 | 1.03 | 85 | 1010.4 | |
| 20260507155716 | 69 | 0.0 | 0.0 | 0.00 | 1.10 | 1.02 | 84 | 1010.6 | |
| 20260507154736 | 69 | 0.0 | 1.0 | 0.01 | 1.10 | 1.02 | 84 | 1010.3 | |
| 20260507153716 | 69 | 0.0 | 0.0 | 0.02 | 1.10 | 1.02 | 84 | 1010.2 | |
| 20260507152715 | 69 | 0.0 | 0.0 | 0.06 | 1.10 | 1.02 | 85 | 1009.5 | |
| 20260507151715 | 68 | 0.0 | 0.0 | 0.16 | 1.10 | 1.02 | 86 | 1010.0 | |
| 20260507150735 | 68 | 338 | 1.0 | 2.0 | 0.26 | 1.10 | 1.02 | 85 | 1009.8 |
| 20260507145715 | 68 | 0.0 | 2.0 | 0.44 | 1.10 | 1.02 | 85 | 1010.1 | |
| 20260507144756 | 68 | 0.0 | 1.0 | 0.49 | 1.09 | 1.01 | 85 | 1010.4 | |
| 20260507143716 | 68 | 0.0 | 1.0 | 0.50 | 1.08 | 1.00 | 85 | 1010.5 | |
| 20260507142756 | 68 | 0.0 | 1.0 | 0.46 | 1.04 | 0.96 | 85 | 1010.5 | |
| 20260507141716 | 68 | 0.0 | 0.0 | 0.36 | 0.94 | 0.86 | 85 | 1010.5 | |
| 20260507140715 | 68 | 0.0 | 1.0 | 0.26 | 0.84 | 0.76 | 85 | 1010.8 | |
| 20260507135717 | 68 | 0 | 1.0 | 2.0 | 0.08 | 0.66 | 0.58 | 85 | 1010.9 |
| 20260507134717 | 68 | 0.0 | 0.0 | 0.03 | 0.60 | 0.52 | 85 | 1010.7 | |
| 20260507133717 | 68 | 0.0 | 0.0 | 0.01 | 0.58 | 0.50 | 85 | 1010.8 | |
| 20260507132717 | 68 | 0.0 | 0.0 | 0.01 | 0.58 | 0.50 | 85 | 1010.8 | |
| 20260507131718 | 68 | 0.0 | 0.0 | 0.01 | 0.58 | 0.50 | 85 | 1010.8 | |
| 20260507130717 | 68 | 0.0 | 1.0 | 0.01 | 0.58 | 0.50 | 85 | 1010.8 | |
| 20260507125717 | 68 | 315 | 1.0 | 2.0 | 0.01 | 0.58 | 0.50 | 85 | 1010.6 |
| 20260507124717 | 67 | 0.0 | 2.0 | 0.00 | 0.57 | 0.49 | 85 | 1010.7 | |
| 20260507123737 | 67 | 45 | 1.0 | 2.0 | 0.00 | 0.57 | 0.49 | 85 | 1010.6 |
| 20260507122717 | 67 | 0.0 | 2.0 | 0.00 | 0.57 | 0.49 | 85 | 1010.7 | |
| 20260507121717 | 67 | 0.0 | 0.0 | 0.00 | 0.57 | 0.49 | 85 | 1010.7 | |
| 20260507120737 | 67 | 0.0 | 0.0 | 0.00 | 0.57 | 0.49 | 85 | 1010.9 | |
| 20260507115717 | 67 | 0.0 | 0.0 | 0.00 | 0.57 | 0.49 | 85 | 1011.0 | |
| 20260507114717 | 67 | 0.0 | 1.0 | 0.00 | 0.57 | 0.49 | 85 | 1011.0 | |
| 20260507113737 | 66 | 0.0 | 0.0 | 0.01 | 0.57 | 0.49 | 85 | 1011.3 | |
| 20260507112717 | 66 | 0.0 | 0.0 | 0.01 | 0.57 | 0.49 | 85 | 1011.4 | |
| 20260507111717 | 66 | 0.0 | 0.0 | 0.01 | 0.57 | 0.49 | 85 | 1011.3 | |
| 20260507110717 | 66 | 0.0 | 2.0 | 0.01 | 0.57 | 0.49 | 85 | 1011.5 | |
| 20260507105717 | 66 | 0.0 | 0.0 | 0.02 | 0.57 | 0.49 | 85 | 1011.3 | |
| 20260507104717 | 66 | 0.0 | 0.0 | 0.03 | 0.57 | 0.49 | 85 | 1011.1 | |
| 20260507103737 | 66 | 0.0 | 0.0 | 0.02 | 0.56 | 0.48 | 85 | 1010.9 | |
| 20260507102717 | 66 | 0.0 | 0.0 | 0.02 | 0.56 | 0.48 | 84 | 1011.1 | |
| 20260507101717 | 66 | 0.0 | 0.0 | 0.02 | 0.56 | 0.48 | 84 | 1011.0 | |
| 20260507100717 | 66 | 0.0 | 0.0 | 0.03 | 0.56 | 0.48 | 84 | 1011.0 | |
| 20260507095737 | 66 | 0.0 | 0.0 | 0.02 | 0.55 | 0.47 | 84 | 1011.0 | |
| 20260507094717 | 66 | 0.0 | 0.0 | 0.01 | 0.54 | 0.46 | 85 | 1010.9 | |
| 20260507093716 | 66 | 0.0 | 0.0 | 0.01 | 0.54 | 0.46 | 85 | 1011.0 | |
| 20260507092717 | 66 | 0.0 | 0.0 | 0.03 | 0.54 | 0.46 | 85 | 1010.9 | |
| 20260507091718 | 66 | 0.0 | 0.0 | 0.07 | 0.54 | 0.46 | 84 | 1010.7 | |
| 20260507090716 | 65 | 0.0 | 0.0 | 0.09 | 0.53 | 0.45 | 84 | 1011.0 | |
| 20260507085717 | 65 | 0.0 | 0.0 | 0.09 | 0.53 | 0.45 | 84 | 1010.9 | |
| 20260507084737 | 65 | 135 | 1.0 | 3.0 | 0.11 | 0.53 | 0.45 | 84 | 1011.0 |
| 20260507083717 | 65 | 0.0 | 0.0 | 0.13 | 0.53 | 0.45 | 84 | 1011.4 | |
| 20260507082716 | 65 | 0.0 | 0.0 | 0.13 | 0.51 | 0.43 | 84 | 1011.6 | |
| 20260507081716 | 65 | 0.0 | 0.0 | 0.09 | 0.47 | 0.39 | 83 | 1011.8 | |
| 20260507080716 | 65 | 0.0 | 0.0 | 0.07 | 0.44 | 0.36 | 83 | 1011.8 | |
| 20260507075716 | 65 | 0.0 | 0.0 | 0.09 | 0.44 | 0.36 | 83 | 1011.6 | |
| 20260507074716 | 65 | 0.0 | 0.0 | 0.07 | 0.42 | 0.34 | 83 | 1010.6 | |
| 20260507073716 | 65 | 0.0 | 2.0 | 0.05 | 0.40 | 0.32 | 83 | 1011.7 | |
| 20260507072836 | 65 | 0.0 | 0.0 | 0.03 | 0.38 | 0.30 | 83 | 1012.0 | |
| 20260507071716 | 65 | 0.0 | 0.0 | 0.03 | 0.38 | 0.30 | 83 | 1011.9 | |
| 20260507070716 | 65 | 0.0 | 0.0 | 0.02 | 0.37 | 0.29 | 82 | 1011.9 | |
| 20260507065716 | 65 | 0.0 | 0.0 | 0.00 | 0.35 | 0.27 | 82 | 1012.3 | |
| 20260507064716 | 66 | 0.0 | 0.0 | 0.00 | 0.35 | 0.27 | 82 | 1012.5 | |
| 20260507063716 | 65 | 0.0 | 0.0 | 0.00 | 0.35 | 0.27 | 82 | 1012.3 | |
| 20260507062716 | 66 | 0.0 | 0.0 | 0.00 | 0.35 | 0.27 | 81 | 1012.5 | |
| 20260507061716 | 66 | 0.0 | 0.0 | 0.00 | 0.35 | 0.27 | 81 | 1012.8 | |
| 20260507060716 | 66 | 0.0 | 0.0 | 0.00 | 0.35 | 0.27 | 81 | 1013.0 | |
| 20260507055736 | 66 | 0.0 | 0.0 | 0.01 | 0.35 | 0.27 | 80 | 1013.0 |